Topeka, KS

2:00 AM CDT on June 28, 2017 (GMT -0500)
Billard Municipal

Weather History for KTOP - March, 2014

Change the Weather History Date:

Friday, March 7, 2014

  Actual Average Record
Temperature  
Mean Temperature 49 °F 42 °F  
Max Temperature 64 °F 53 °F 84 °F (1974)
Min Temperature 33 °F 30 °F 1 °F (1996)
Degree Days  
Heating Degree Days 16 23  
Month to date heating degree days 271 172  
Since 1 July heating degree days 4593 4139  
Cooling Degree Days 0 0  
Month to date cooling degree days 0 0  
Year to date cooling degree days 0 0  
Moisture  
Dew Point 32 °F    
Average Humidity 55    
Maximum Humidity 79    
Minimum Humidity 31    
Precipitation  
Precipitation 0.00 in 0.07 in 2.22 in (1921)
Month to date precipitation 0.17 0.46  
Year to date precipitation 1.83 2.64  
Snow  
Snow 0.00 in 0.10 in 7.50 in (1931)
Month to date snowfall 2.4 0.5  
Year to date snowfall 21.3 9.9  
Since 1 July snowfall 25.6 16.4  
Snow Depth 0.00 in    
Sea Level Pressure  
Sea Level Pressure 29.94 in    
Wind  
Wind Speed 9 mph (ESE)    
Max Wind Speed 23 mph    
Max Gust Speed 31 mph    
Visibility 6 miles    
Events      
T = Trace of Precipitation, MM = Missing Value Source: NWS Daily Summary

Daily Weather History Graph

Daily Weather History Graph

Search for Another Location

Airport or City:

Trip Planner

Search our weather history database for the weather conditions in past years. The results will help you decide how hot, cold, wet, or windy it might be!

Date:

Astronomy

Mar. 07, 2014 Rise Set
Actual Time 6:46 AM CST 6:21 PM CST
Civil Twilight 6:19 AM CST 6:48 PM CST
Nautical Twilight 5:48 AM CST 7:19 PM CST
Astronomical Twilight 5:17 AM CST 7:50 PM CST
Moon 10:42 AM CST (3/7) 12:24 AM CST (3/7)
Length of Visible Light 12h 28m
Length of Day
11h 35m
Waxing Crescent, 42% of the Moon is Illuminated
Mar 7
Waxing Crescent
Mar 8
First Quarter
Mar 16
Full
Mar 23
Last Quarter
Mar 30
New

Hourly Weather History & Observations

Time (CST) Temp. Windchill Dew Point Humidity Pressure Visibility Wind Dir Wind Speed Gust Speed Precip Events Conditions
12:53 AM 39.9 °F 35.1 °F 30.9 °F 70% 29.93 in 5.0 mi South 6.9 mph - N/A   Haze
1:53 AM 39.9 °F 35.8 °F 30.9 °F 70% 29.92 in 6.0 mi South 5.8 mph - N/A   Haze
2:53 AM 39.0 °F 34.8 °F 32.0 °F 76% 29.91 in 6.0 mi SSE 5.8 mph - N/A   Haze
3:53 AM 37.9 °F 33.5 °F 30.9 °F 76% 29.89 in 5.0 mi SSE 5.8 mph - N/A   Haze
4:53 AM 39.9 °F 35.8 °F 32.0 °F 73% 29.89 in 5.0 mi South 5.8 mph - N/A   Haze
5:53 AM 39.0 °F 35.7 °F 32.0 °F 76% 29.88 in 5.0 mi Variable 4.6 mph - N/A   Haze
6:53 AM 37.9 °F 35.5 °F 30.9 °F 76% 29.88 in 3.0 mi SSE 3.5 mph - N/A   Haze
7:53 AM 41.0 °F 37.1 °F 33.1 °F 73% 29.88 in 4.0 mi SSE 5.8 mph - N/A   Haze
8:53 AM 46.0 °F 43.1 °F 34.0 °F 63% 29.89 in 6.0 mi SSW 5.8 mph - N/A   Haze
9:53 AM 48.9 °F - 35.1 °F 59% 29.88 in 7.0 mi Variable 4.6 mph - N/A   Clear
10:53 AM 54.0 °F - 35.1 °F 49% 29.86 in 9.0 mi SSW 10.4 mph - N/A   Clear
11:53 AM 57.0 °F - 35.1 °F 44% 29.85 in 10.0 mi South 10.4 mph - N/A   Clear
12:53 PM 60.1 °F - 35.1 °F 39% 29.84 in 10.0 mi South 6.9 mph - N/A   Clear
1:53 PM 63.0 °F - 34.0 °F 34% 29.82 in 10.0 mi South 9.2 mph - N/A   Clear
2:53 PM 63.0 °F - 33.1 °F 33% 29.82 in 10.0 mi South 6.9 mph - N/A   Clear
3:53 PM 64.0 °F - 33.1 °F 31% 29.81 in 10.0 mi East 5.8 mph - N/A   Clear
4:53 PM 61.0 °F - 35.1 °F 38% 29.83 in 10.0 mi NNE 8.1 mph - N/A   Clear
5:53 PM 50.0 °F - 37.9 °F 63% 29.89 in 6.0 mi North 11.5 mph 27.6 mph N/A   Haze
6:53 PM 44.1 °F 37.1 °F 36.0 °F 73% 29.95 in 5.0 mi North 15.0 mph - N/A   Haze
7:45 PM 39.9 °F 30.0 °F 33.1 °F 77% 29.98 in 4.0 mi North 21.9 mph 26.5 mph N/A   Haze
7:53 PM 39.9 °F 29.7 °F 33.1 °F 77% 29.99 in 4.0 mi North 23.0 mph 29.9 mph N/A   Haze
8:53 PM 37.9 °F 28.5 °F 30.0 °F 73% 30.05 in 5.0 mi North 17.3 mph 24.2 mph N/A   Haze
9:53 PM 35.1 °F 24.5 °F 28.0 °F 76% 30.09 in 5.0 mi North 18.4 mph 29.9 mph N/A   Haze
10:15 PM 35.1 °F 26.4 °F 28.0 °F 76% 30.08 in 6.0 mi North 12.7 mph - N/A   Haze
10:53 PM 34.0 °F 24.6 °F 27.0 °F 75% 30.09 in 5.0 mi North 13.8 mph 23.0 mph N/A   Haze
11:06 PM 34.0 °F 26.6 °F 27.0 °F 75% 30.09 in 5.0 mi North 9.2 mph - N/A   Haze
11:37 PM 34.0 °F 25.5 °F 26.1 °F 73% 30.10 in 6.0 mi North 11.5 mph 25.3 mph N/A   Haze
11:53 PM 33.1 °F 23.4 °F 25.0 °F 72% 30.12 in 7.0 mi North 13.8 mph 23.0 mph N/A   Overcast